TimeCST,TemperatureF,Dew PointF,Humidity,Sea Level PressureIn,VisibilityMPH,Wind Direction,Wind SpeedMPH,Gust SpeedMPH,PrecipitationIn,Events,Conditions,WindDirDegrees,DateUTC
12:15 AM,51.4,44.2,76,30.52,10.0,NNE,12.7,20.7,N/A,,Clear,20,2013-11-13 06:15:00
12:35 AM,51.3,42.8,73,30.53,10.0,NNE,12.7,23.0,N/A,,Clear,20,2013-11-13 06:35:00
12:55 AM,50.7,42.3,73,30.53,10.0,NNE,11.5,17.3,N/A,,Clear,20,2013-11-13 06:55:00
1:15 AM,50.0,41.9,74,30.53,10.0,NNE,11.5,17.3,N/A,,Clear,20,2013-11-13 07:15:00
1:35 AM,49.3,41.0,73,30.54,10.0,NNE,10.4,-,N/A,,Clear,20,2013-11-13 07:35:00
1:55 AM,48.7,40.1,72,30.55,10.0,NNE,10.4,-,N/A,,Clear,30,2013-11-13 07:55:00
2:15 AM,48.0,38.5,70,30.54,10.0,NNE,11.5,20.7,N/A,,Clear,20,2013-11-13 08:15:00
2:35 AM,47.3,37.4,68,30.54,10.0,NNE,11.5,16.1,N/A,,Clear,20,2013-11-13 08:35:00
2:55 AM,46.6,36.7,68,30.54,10.0,NNE,10.4,-,N/A,,Clear,20,2013-11-13 08:55:00
3:15 AM,45.9,36.1,69,30.54,10.0,NNE,12.7,18.4,N/A,,Clear,20,2013-11-13 09:15:00
3:35 AM,45.5,34.3,65,30.55,10.0,NNE,8.1,-,N/A,,Clear,20,2013-11-13 09:35:00
3:55 AM,44.6,33.4,65,30.55,10.0,NNE,8.1,-,N/A,,Clear,30,2013-11-13 09:55:00
4:15 AM,43.7,32.7,65,30.55,10.0,NNE,9.2,-,N/A,,Clear,20,2013-11-13 10:15:00
4:35 AM,43.3,30.4,60,30.55,10.0,NNE,10.4,20.7,N/A,,Clear,20,2013-11-13 10:35:00
4:55 AM,42.6,28.4,57,30.55,10.0,NNE,11.5,16.1,N/A,,Clear,30,2013-11-13 10:55:00
5:15 AM,41.9,28.0,58,30.55,10.0,NNE,10.4,-,N/A,,Clear,20,2013-11-13 11:15:00
5:35 AM,41.0,29.1,63,30.57,10.0,North,6.9,-,N/A,,Clear,10,2013-11-13 11:35:00
5:55 AM,39.9,30.2,68,30.57,10.0,NNE,6.9,-,N/A,,Clear,20,2013-11-13 11:55:00
6:15 AM,39.6,30.6,70,30.58,10.0,NNE,5.8,-,N/A,,Clear,20,2013-11-13 12:15:00
6:35 AM,39.4,30.0,69,30.58,10.0,NNE,9.2,-,N/A,,Clear,30,2013-11-13 12:35:00
6:55 AM,39.0,29.8,70,30.59,10.0,NNE,5.8,-,N/A,,Clear,20,2013-11-13 12:55:00
7:15 AM,37.9,30.2,74,30.59,10.0,North,8.1,-,N/A,,Clear,10,2013-11-13 13:15:00
7:35 AM,38.8,30.7,73,30.59,10.0,North,9.2,-,N/A,,Clear,10,2013-11-13 13:35:00
7:55 AM,40.3,30.9,69,30.59,10.0,North,11.5,-,N/A,,Clear,10,2013-11-13 13:55:00
8:15 AM,41.4,30.6,65,30.59,10.0,NNE,10.4,19.6,N/A,,Clear,20,2013-11-13 14:15:00
8:35 AM,42.6,30.6,62,30.59,10.0,North,13.8,18.4,N/A,,Clear,10,2013-11-13 14:35:00
8:55 AM,43.3,30.6,61,30.59,10.0,NNE,10.4,17.3,N/A,,Clear,30,2013-11-13 14:55:00
9:15 AM,44.6,30.6,58,30.59,10.0,NNE,12.7,20.7,N/A,,Clear,30,2013-11-13 15:15:00
9:35 AM,45.9,30.0,54,30.59,10.0,NNE,12.7,19.6,N/A,,Clear,20,2013-11-13 15:35:00
9:55 AM,47.1,30.2,52,30.59,10.0,NNE,10.4,19.6,N/A,,Clear,20,2013-11-13 15:55:00
10:15 AM,48.6,30.4,50,30.58,10.0,NNE,12.7,18.4,N/A,,Clear,30,2013-11-13 16:15:00
10:35 AM,48.9,29.8,48,30.58,10.0,North,11.5,17.3,N/A,,Clear,10,2013-11-13 16:35:00
10:55 AM,49.6,29.7,46,30.57,10.0,North,12.7,19.6,N/A,,Clear,360,2013-11-13 16:55:00
11:15 AM,51.1,28.9,43,30.55,10.0,North,15.0,20.7,N/A,,Clear,10,2013-11-13 17:15:00
11:35 AM,52.5,27.9,39,30.55,10.0,NNE,11.5,24.2,N/A,,Clear,30,2013-11-13 17:35:00
11:55 AM,53.8,27.1,36,30.53,10.0,NNE,13.8,19.6,N/A,,Clear,20,2013-11-13 17:55:00
12:15 PM,55.0,27.7,35,30.52,10.0,NNE,13.8,17.3,N/A,,Clear,30,2013-11-13 18:15:00
12:35 PM,55.8,27.5,34,30.50,10.0,North,12.7,17.3,N/A,,Clear,10,2013-11-13 18:35:00
12:55 PM,56.1,27.7,34,30.49,10.0,NNE,10.4,17.3,N/A,,Clear,30,2013-11-13 18:55:00
1:15 PM,56.8,27.9,33,30.47,10.0,North,13.8,17.3,N/A,,Clear,10,2013-11-13 19:15:00
1:35 PM,57.0,27.5,32,30.47,10.0,North,10.4,17.3,N/A,,Clear,360,2013-11-13 19:35:00
1:55 PM,57.6,27.0,31,30.47,10.0,NNE,9.2,-,N/A,,Clear,20,2013-11-13 19:55:00
2:15 PM,56.8,26.8,32,30.46,10.0,NNE,6.9,-,N/A,,Clear,20,2013-11-13 20:15:00
2:35 PM,56.7,27.1,32,30.45,10.0,NNE,8.1,-,N/A,,Clear,20,2013-11-13 20:35:00
2:55 PM,57.0,28.2,33,30.45,10.0,North,6.9,-,N/A,,Clear,10,2013-11-13 20:55:00
3:15 PM,57.0,28.0,33,30.45,10.0,NNE,6.9,-,N/A,,Clear,20,2013-11-13 21:15:00
3:35 PM,57.2,27.7,32,30.44,10.0,NNE,5.8,-,N/A,,Clear,20,2013-11-13 21:35:00
3:55 PM,57.0,28.0,33,30.44,10.0,NNE,5.8,-,N/A,,Clear,30,2013-11-13 21:55:00
4:15 PM,57.2,27.7,32,30.45,10.0,NNE,6.9,-,N/A,,Clear,20,2013-11-13 22:15:00
4:35 PM,56.3,28.0,34,30.44,10.0,NNE,5.8,-,N/A,,Clear,20,2013-11-13 22:35:00
4:55 PM,54.7,30.6,40,30.44,10.0,North,3.5,-,N/A,,Clear,10,2013-11-13 22:55:00
5:15 PM,53.1,32.9,46,30.44,10.0,Calm,Calm,-,N/A,,Clear,0,2013-11-13 23:15:00
5:35 PM,52.7,32.7,47,30.44,10.0,Calm,Calm,-,N/A,,Clear,0,2013-11-13 23:35:00
5:55 PM,50.9,36.0,57,30.44,10.0,Calm,Calm,-,N/A,,Clear,0,2013-11-13 23:55:00
6:15 PM,48.6,37.8,66,30.45,10.0,Calm,Calm,-,N/A,,Clear,0,2013-11-14 00:15:00
6:35 PM,46.8,38.7,73,30.45,10.0,Calm,Calm,-,N/A,,Clear,0,2013-11-14 00:35:00
6:55 PM,45.5,39.0,78,30.45,10.0,Calm,Calm,-,N/A,,Clear,0,2013-11-14 00:55:00
7:15 PM,44.4,38.5,80,30.45,10.0,NE,3.5,-,N/A,,Clear,40,2013-11-14 01:15:00
7:35 PM,44.6,37.4,76,30.46,10.0,Calm,Calm,-,N/A,,Clear,0,2013-11-14 01:35:00
7:55 PM,45.7,37.2,72,30.45,10.0,Calm,Calm,-,N/A,,Clear,0,2013-11-14 01:55:00
8:15 PM,44.4,37.9,78,30.45,10.0,Calm,Calm,-,N/A,,Clear,0,2013-11-14 02:15:00
8:35 PM,44.1,37.9,79,30.45,10.0,Calm,Calm,-,N/A,,Clear,0,2013-11-14 02:35:00
8:55 PM,44.8,37.4,75,30.45,10.0,Calm,Calm,-,N/A,,Clear,0,2013-11-14 02:55:00
9:15 PM,44.1,38.1,80,30.45,10.0,Calm,Calm,-,N/A,,Clear,0,2013-11-14 03:15:00
9:35 PM,43.9,38.1,80,30.44,10.0,Calm,Calm,-,N/A,,Clear,0,2013-11-14 03:35:00
9:55 PM,42.3,39.0,88,30.44,10.0,Calm,Calm,-,N/A,,Clear,0,2013-11-14 03:55:00
10:15 PM,40.6,38.3,91,30.43,10.0,NE,3.5,-,N/A,,Clear,40,2013-11-14 04:15:00
10:35 PM,40.5,37.8,90,30.43,10.0,Calm,Calm,-,N/A,,Clear,0,2013-11-14 04:35:00
10:55 PM,41.9,36.9,82,30.42,10.0,Calm,Calm,-,N/A,,Clear,0,2013-11-14 04:55:00
11:15 PM,42.8,36.3,78,30.41,10.0,Calm,Calm,-,N/A,,Clear,0,2013-11-14 05:15:00
11:35 PM,43.0,36.1,77,30.41,10.0,Calm,Calm,-,N/A,,Clear,0,2013-11-14 05:35:00
11:55 PM,43.3,35.8,75,30.40,10.0,North,4.6,-,N/A,,Clear,10,2013-11-14 05:55:00